IK5WWP Weather Reports


Display with metric or nautical units.
time (UTC)temp
F
wind
direction
speed
MPH
gust
MPH
rain 1hr
in
rain 24hr
in
rain mn
in
humidity
%
barometer
mb
20260904125429 96 105 4.0 4.0 0.00 0.00 0.00 34 1016.9
20260904124529 97 104 1.0 4.0 0.00 0.00 0.00 33 1016.9
20260904123629 96 97 1.0 6.0 0.00 0.00 0.00 34 1017.1
20260904122730 96 112 2.0 6.0 0.00 0.00 0.00 36 1017.0
20260904121829 95 112 1.0 6.0 0.00 0.00 0.00 36 1017.3
20260904120929 95 90 3.0 6.0 0.00 0.00 0.00 36 1017.3
20260904120029 96 33 2.0 4.0 0.00 0.00 0.00 38 1017.5
20260904113329 94 115 1.0 4.0 0.00 0.00 0.00 40 1017.3
20260904112430 94 116 2.0 4.0 0.00 0.00 0.00 41 1017.3
20260904111529 93 112 2.0 4.0 0.00 0.00 0.00 42 1017.5
20260904110629 93 112 2.0 4.0 0.00 0.00 0.00 41 1017.5
20260904105729 93 104 2.0 4.0 0.00 0.00 0.00 43 1017.6
20260904104829 93 74 0.0 2.0 0.00 0.00 0.00 44 1017.6
20260904103029 92 112 1.0 4.0 0.00 0.00 0.00 46 1017.9
20260904102130 93 111 0.0 2.0 0.00 0.00 0.00 48 1017.9
20260904101229 90 93 2.0 4.0 0.00 0.00 0.00 50 1018.1
20260904095429 91 90 1.0 4.0 0.00 0.00 0.00 51 1018.3
20260904094529 90 90 0.0 4.0 0.00 0.00 0.00 51 1018.2
20260904093630 88 73 1.0 2.0 0.00 0.00 0.00 52 1018.4
20260904092730 89 68 0.0 2.0 0.00 0.00 0.00 52 1018.3
20260904090929 87 68 0.0 4.0 0.00 0.00 0.00 56 1018.5
20260904090029 86 68 0.0 2.0 0.00 0.00 0.00 56 1018.5
20260904084229 86 68 1.0 2.0 0.00 0.00 0.00 57 1018.3
20260904083329 84 69 0.0 2.0 0.00 0.00 0.00 59 1018.5
20260904082430 83 68 0.0 2.0 0.00 0.00 0.00 61 1018.3
20260904081529 81 68 0.0 4.0 0.00 0.00 0.00 65 1018.1
20260904080629 80 68 0.0 2.0 0.00 0.00 0.00 66 1018.3
20260904075729 79 68 2.0 2.0 0.00 0.00 0.00 67 1018.1
20260904073030 77 1 0.0 2.0 0.00 0.00 0.00 68 1018.2
20260904072130 77 1 0.0 2.0 0.00 0.00 0.00 70 1018.1
20260904070330 75 0 0.0 0.0 0.00 0.00 0.00 74 1018.1
20260904065430 74 0 0.0 0.0 0.00 0.00 0.00 75 1017.8
20260904064530 72 0 0.0 0.0 0.00 0.00 0.00 76 1018.0
20260904062730 71 1 0.0 2.0 0.00 0.00 0.00 79 1018.1
20260904061830 70 1 0.0 2.0 0.00 0.00 0.00 82 1018.0
20260904060930 69 0 0.0 0.0 0.00 0.00 0.00 84 1018.2
20260904060030 69 0 0.0 0.0 0.00 0.00 0.00 84 1018.0
20260904055130 68 0 0.0 0.0 0.00 0.00 0.00 84 1018.2
20260904054230 68 1 0.0 2.0 0.00 0.00 0.00 84 1017.8
20260904053330 68 1 0.0 2.0 0.00 0.00 0.00 84 1017.9
20260904052430 68 0 0.0 0.0 0.00 0.00 0.00 84 1017.8
20260904051530 68 0 0.0 0.0 0.00 0.00 0.00 84 1017.6
20260904050630 68 0 0.0 0.0 0.00 0.00 0.00 84 1017.7
20260904045730 68 0 0.0 0.0 0.00 0.00 0.00 84 1017.9
20260904044830 68 1 0.0 2.0 0.00 0.00 0.00 84 1017.7
20260904043930 68 1 0.0 2.0 0.00 0.00 0.00 83 1017.7
20260904042130 69 1 0.0 2.0 0.00 0.00 0.00 82 1017.7
20260904041230 69 1 0.0 2.0 0.00 0.00 0.00 82 1017.5
20260904040330 69 1 0.0 2.0 0.00 0.00 0.00 81 1017.5
20260904035430 70 0 0.0 0.0 0.00 0.00 0.00 79 1017.7
20260904034530 70 1 0.0 2.0 0.00 0.00 0.00 78 1017.5
20260904033630 70 1 0.0 2.0 0.00 0.00 0.00 78 1017.5
20260904032730 70 1 0.0 2.0 0.00 0.00 0.00 78 1017.6
20260904031830 70 1 0.0 2.0 0.00 0.00 0.00 79 1017.6
20260904030930 69 1 0.0 2.0 0.00 0.00 0.00 81 1017.6
20260904030030 69 1 0.0 2.0 0.00 0.00 0.00 82 1017.6
20260904025130 69 1 0.0 2.0 0.00 0.00 0.00 82 1017.6
20260904024230 69 0 0.0 0.0 0.00 0.00 0.00 82 1017.5
20260904023330 69 0 0.0 0.0 0.00 0.00 0.00 82 1017.6
20260904022430 69 0 0.0 0.0 0.00 0.00 0.00 82 1017.4
20260904021530 69 0 0.0 0.0 0.00 0.00 0.00 82 1017.3
20260904014830 70 0 0.0 0.0 0.00 0.00 0.00 81 1017.4
20260904013930 70 1 0.0 2.0 0.00 0.00 0.00 81 1017.5
20260904013030 70 1 0.0 2.0 0.00 0.00 0.00 81 1017.6
20260904012130 71 0 0.0 0.0 0.00 0.00 0.00 81 1017.4
20260904011230 71 0 0.0 0.0 0.00 0.00 0.00 80 1017.4
20260904010330 71 0 0.0 0.0 0.00 0.00 0.00 80 1017.4
20260904004530 71 1 0.0 2.0 0.00 0.00 0.00 80 1017.4
20260904002732 72 1 0.0 2.0 0.00 0.00 0.00 79 1017.3
20260904001830 72 1 0.0 2.0 0.00 0.00 0.00 79 1017.2
20260904000930 72 0 0.0 0.0 0.00 0.00 0.00 79 1017.4
20260903235130 72 0 0.0 0.0 0.00 0.00 0.00 78 1017.4
20260903234230 72 0 0.0 0.0 0.00 0.00 0.00 78 1017.2
20260903233330 73 0 0.0 0.0 0.00 0.00 0.00 77 1017.3
20260903232430 73 0 0.0 0.0 0.00 0.00 0.00 77 1017.2
20260903231531 73 1 0.0 2.0 0.00 0.00 0.00 77 1017.3
20260903230630 73 1 1.0 2.0 0.00 0.00 0.00 77 1017.2
20260903224831 74 0 0.0 0.0 0.00 0.00 0.00 76 1017.1
20260903223930 74 1 0.0 2.0 0.00 0.00 0.00 76 1017.1
20260903223031 74 1 1.0 2.0 0.00 0.00 0.00 75 1017.0
20260903222131 75 1 0.0 2.0 0.00 0.00 0.00 74 1017.0
20260903215512 76 1 0.0 2.0 0.00 0.00 0.00 71 1016.8
20260903214612 76 354 0.0 2.0 0.00 0.00 0.00 71 1017.1
20260903213712 76 21 2.0 4.0 0.00 0.00 0.00 70 1016.8
20260903211012 77 45 1.0 2.0 0.00 0.00 0.00 69 1016.9
20260903210112 78 40 0.0 6.0 0.00 0.00 0.00 68 1016.8
20260903205212 77 39 2.0 2.0 0.00 0.00 0.00 68 1016.8
20260903204312 77 64 0.0 2.0 0.00 0.00 0.00 70 1016.6
20260903203412 77 0 0.0 0.0 0.00 0.00 0.00 71 1016.8
20260903202513 76 68 0.0 2.0 0.00 0.00 0.00 73 1016.7
20260903201612 76 69 1.0 2.0 0.00 0.00 0.00 73 1016.6
20260903195812 77 0 0.0 0.0 0.00 0.00 0.00 71 1016.5
20260903194912 77 68 0.0 2.0 0.00 0.00 0.00 71 1016.2
20260903194012 78 68 0.0 2.0 0.00 0.00 0.00 70 1016.3
20260903193112 79 46 0.0 2.0 0.00 0.00 0.00 68 1016.4
20260903192212 79 46 0.0 4.0 0.00 0.00 0.00 67 1016.1
20260903191312 80 45 0.0 2.0 0.00 0.00 0.00 67 1016.3
20260903190414 80 69 1.0 2.0 0.00 0.00 0.00 67 1016.4
20260903185512 80 69 0.0 2.0 0.00 0.00 0.00 67 1016.2
20260903184613 80 63 1.0 2.0 0.00 0.00 0.00 67 1016.0
20260903183713 81 62 1.0 2.0 0.00 0.00 0.00 65 1016.0
20260903182812 80 69 0.0 2.0 0.00 0.00 0.00 67 1015.9
20260903181012 82 69 0.0 2.0 0.00 0.00 0.00 66 1015.9
20260903180112 82 65 0.0 2.0 0.00 0.00 0.00 66 1015.8
20260903174312 82 69 0.0 2.0 0.00 0.00 0.00 65 1015.5
20260903173413 83 69 1.0 2.0 0.00 0.00 0.00 64 1015.6
20260903171613 85 46 0.0 2.0 0.00 0.00 0.00 59 1015.6
20260903170712 85 69 1.0 2.0 0.00 0.00 0.00 57 1015.5
20260903164913 87 50 1.0 4.0 0.00 0.00 0.00 56 1015.3
20260903164012 87 58 2.0 4.0 0.00 0.00 0.00 56 1015.3
20260903162212 88 71 2.0 4.0 0.00 0.00 0.00 55 1015.2
20260903160413 89 47 2.0 4.0 0.00 0.00 0.00 53 1015.4
20260903155513 89 51 2.0 4.0 0.00 0.00 0.00 50 1015.2
20260903154613 90 40 0.0 6.0 0.00 0.00 0.00 47 1015.5
20260903153713 91 70 1.0 4.0 0.00 0.00 0.00 44 1015.5
20260903151913 91 93 2.0 4.0 0.00 0.00 0.00 44 1015.4
20260903151013 91 86 2.0 4.0 0.00 0.00 0.00 45 1015.7
20260903150113 91 107 2.0 4.0 0.00 0.00 0.00 45 1015.5
20260903145213 92 114 2.0 4.0 0.00 0.00 0.00 45 1015.2
20260903144313 92 52 1.0 4.0 0.00 0.00 0.00 44 1015.5
20260903143413 93 51 0.0 6.0 0.00 0.00 0.00 44 1015.5
20260903142513 92 96 1.0 4.0 0.00 0.00 0.00 43 1015.6
20260903141613 92 95 1.0 4.0 0.00 0.00 0.00 39 1015.6
20260903140713 92 111 2.0 4.0 0.00 0.00 0.00 40 1015.7
20260903135813 92 110 3.0 4.0 0.00 0.00 0.00 40 1015.7
20260903134913 93 93 1.0 4.0 0.00 0.00 0.00 41 1015.6
20260903133113 92 108 2.0 4.0 0.00 0.00 0.00 38 1015.6
20260903132213 93 115 0.0 4.0 0.00 0.00 0.00 38 1015.8
20260903131313 93 112 2.0 4.0 0.00 0.00 0.00 40 1015.8
20260903130413 93 110 1.0 4.0 0.00 0.00 0.00 41 1015.8
20260903125513 93 85 1.0 4.0 0.00 0.00 0.00 41 1016.1